Regional Weather Roundup
Issued by NWS Grand Forks, ND

Home | Current Version | Previous Version | Text Only | Print | Product List | Glossary Off
Versions: 1 2 3 4 5 6 7 8 9 10 11 12 13 14 15 16 17 18 19 20 21 22 23 24 25 26 27 28 29 30 31 32 33 34 35 36 37 38 39 40 41 42 43 44 45 46 47 48 49 50

000
ASUS43 KFGF 232210
RWRFGF
PRAIRIE TO PINES  WEATHER ROUNDUP
NATIONAL WEATHER SERVICE EASTERN NORTH DAKOTA/GRAND FORKS ND
500 PM CDT TUE AUG 23 2016

 **SATELLITE DATA USED TO AUGMENT SKY COVER AT AUTOMATED STATIONS**
 *****  WEATHER ACROSS EASTERN NORTH DAKOTA  *****

CITY           SKY/WX    TMP DP  RH WIND       PRES   REMARKS
GRAND FORKS    CLOUDY    86  68  54 SW22G29   29.65S
GRAND FRKS AFB CLOUDY    83  68  60 SW16      29.67R
GRAND FRKS NWS   N/A     86 N/A N/A SW20        N/A
DEVILS LAKE    CLOUDY    75  69  81 NW9       29.72R
FARGO          MOSUNNY   89  65  44 S24G33    29.69S HX  91
WAHPETON ARPT  CLEAR     86  55  35 S20G32    29.75S
$$

 ***** WEATHER ACROSS CENTRAL AND WESTERN NORTH DAKOTA  *****

CITY           SKY/WX    TMP DP  RH WIND       PRES   REMARKS
BISMARCK       SUNNY     81  39  22 NW22G32   29.82R
MINOT          SUNNY     79  43  27 W14G22    29.79S
JAMESTOWN      CLOUDY    77  68  73 NW17G23   29.73R
MINOT AFB      SUNNY     77  42  28 NW17      29.77F
GARRISON         N/A     80  39  23 NW18      29.81S
WILLISTON      MOSUNNY   79  39  23 W21G30    29.84F
DICKINSON      MOSUNNY   78  28  16 NW13G30   29.88S
HETTINGER      SUNNY     79  33  19 NW21G29   29.92R
$$

 *****  OTHER AIRPORT OBSERVATIONS IN OUR AREA  *****

CITY           SKY/WX    TMP DP  RH WIND       PRES   REMARKS
WALHALLA       NOT AVBL
GRAFTON AIRPOR MOCLDY    84  70  61 MISG      29.66S
VALLEY CITY AR CLOUDY    79  75  89 NW13      29.73R
CANDO          NOT AVBL
CAVALIER APRT  MOCLDY    82  68  61 S12       29.63S
GWINNER        FAIR      84  66  54 S21G26    29.71S
SHEYENNE NWR     N/A     88  65  45 S18       29.95
ROLLA            N/A     73  59  60 NW15G22   29.76R
 ***** THE ABOVE OBSERVATIONS ARE NON NWS ARE NOT QUALITY
       CONTROLLED AND MAY MIS-REPORT RAIN FOR SNOW...
$$

  *****  WEATHER ACROSS NORTHERN MINNESOTA  *****

CITY           SKY/WX    TMP DP  RH WIND       PRES   REMARKS
FLAG ISLAND    PTSUNNY   75  70  83 CALM      29.70S HAZE
WARROAD        CLOUDY    82  72  69 S3        29.69F
ROSEAU         CLOUDY    82  72  69 S5        29.68F
HALLOCK        CLOUDY    81  68  65 S12       29.65S
THF RVR FALLS  SUNNY     87  67  51 S23G32    29.68F HX  90
BAUDETTE       MOSUNNY   86  68  54 S20G26    29.69F
WASKISH        SUNNY     86  70  58 S10G20    29.73S HX  90
CROOKSTON      MOSUNNY   86  68  54 S22       29.67F
STEPHEN NDAWN    N/A     82  70  65 SW5         N/A
GREENBUSH NDAW   N/A     82  70  65 W5          N/A
$$
  *****  WEATHER ACROSS CENTRAL AND WEST MINNESOTA  *****

CITY           SKY/WX    TMP DP  RH WIND       PRES   REMARKS
FOSSTON        SUNNY     84  64  51 S21G26    29.75R
BEMIDJI        SUNNY     85  69  57 S10G22    29.77S
PARK RAPIDS    SUNNY     85  68  56 S16G23    29.80S
ELBOW LAKE     FAIR      82  69  66 S20       29.80S
WADENA         SUNNY     82  70  65 S16       29.81R
DETROIT LAKES  SUNNY     82  68  61 S17G28    29.79S
MOORHEAD       SUNNY     88  63  42 S13G25    29.71F
FERGUS FALLS   SUNNY     84  68  58 S20       29.79R
MORRIS MN      CLOUDY    82  66  57 S18G25    29.80R
STAPLES          N/A     81  68  65 S14G20    29.83R
$$
  *****  WEATHER ELSEWHERE ACROSS MINNESOTA  *****

CITY           SKY/WX    TMP DP  RH WIND       PRES   REMARKS
DULUTH         MOSUNNY   83  67  58 S17       29.88F
INTRNTL FALLS  MOSUNNY   85  68  56 VRB7G18   29.74F
ELY            SUNNY     82  64  54 S12G17    29.86S
CLOQUET        MOSUNNY   82  64  54 S13G20    29.88S
WHEATON        SUNNY     84  66  54 S18G24    29.79R
BRAINERD       CLOUDY    82  69  64 S18       29.84S
HIBBING        SUNNY     82  65  56 S12G21    29.85R
ALEXANDRIA     CLOUDY    80  70  71 S15       29.85R
SAINT CLOUD    PTSUNNY   80  72  76 SE13      29.86S
MINNEAPOLIS    CLOUDY    81  66  60 S21G29    29.90R
$$

  *****  WEATHER ACROSS SOUTH DAKOTA  *****

CITY           SKY/WX    TMP DP  RH WIND       PRES   REMARKS
SIOUX FALLS    CLOUDY    71  66  84 S10       29.84R
BROOKINGS      CLOUDY    72  67  84 S14       29.83R
WATERTOWN      MOSUNNY   78  67  68 S17G29    29.80R
HURON          SUNNY     82  70  66 S13G22    29.74R
SISSETON         N/A     84  63  49 S18G25    29.75R
ABERDEEN       SUNNY     86  66  51 SE21G31   29.69F
MITCHELL       SUNNY     82  70  66 S15       29.76S
PIERRE         MOSUNNY   85  50  29 N24G35    29.78R
MOBRIDGE       SUNNY     85  40  20 N25G31    29.78R
RAPID CITY     MOSUNNY   78  32  18 N17       29.95R
$$

  *****  SOME WEATHER IN NEARBY STATES *****

CITY           SKY/WX    TMP DP  RH WIND       PRES   REMARKS
GLASGOW MT     CLOUDY    68  44  42 W35G45    29.89S
GREAT FALLS MT CLOUDY    68  37  32 N21G30    30.10R
CHEYENNE WY    CLOUDY    81  21  11 N14G20    30.11S
SCOTTSBLUFF NE SUNNY     88  32  13 N12       29.98R
OMAHA NE       PTSUNNY   85  73  67 S23G29    29.82F HX  91
DES MOINES IA  CLOUDY    79  71  76 S17       29.94F
DAVENPORT IA   CLOUDY    78  66  66 S10G20    30.08F
CHICAGO IL     PTSUNNY   79  59  50 S14       30.13S
EAU CLAIRE WI  CLOUDY    81  65  58 S14G21    29.97R
LA CROSSE WI   CLOUDY    82  69  64 S15G25    29.99R
$$

  *****  SOME NATIONAL WEATHER *****

CITY           SKY/WX    TMP DP  RH WIND       PRES   REMARKS
LA GUARDIA NY  MOSUNNY   83  53  35 VRB5      30.23F
RALEIGH NC     MOSUNNY   86  59  39 NE5       30.24S
ATLANTA GA     PTSUNNY   91  67  44 E7        30.20S HX  94
NEW ORLEANS LA CLOUDY    87  71  58 SE7       30.11F HX  93
OKLAHOMA CITY  PTSUNNY   89  70  53 S23G32    29.98F HX  94
ALBUQUERQUE NM CLOUDY    79  47  32 SW6       30.16F
SALT LAKE CITY MOSUNNY   89  29  11 N9G21     30.04F
LOS ANGELES CA MOSUNNY   75  62  64 W14G22    30.01F
BOISE ID       SUNNY     79  27  14 NW13      30.08F
SEATTLE WA     MOSUNNY   77  50  38 NW9       30.19F
$$

*** WEATHER ACROSS MANITOBA...SASKATCHEWAN AND ONTARIO ***
                ***ONTARIO***

CITY           SKY/WX    TMP DP  RH WIND       PRES   REMARKS
GERALDTON      CLOUDY    79  66  65 S12       29.90F
THUNDER BAY    PTSUNNY   81  64  57 S10       29.88S
SIOUX LOOKOUT  CLOUDY    81  68  65 SE10G20   29.78F
TORONTO        MOSUNNY   82  59  44 SW13G21   30.19S
BIG TROUT LK   SUNNY     66  50  55 NW3       29.93F
PICKLE LAKE    PTSUNNY   72  61  68 NE9       29.86F
DRYDEN         MOSUNNY   81  66  61 SE16G24   29.77S
KENORA         PTSUNNY   79  66  65 S13       29.74S
$$
                *** MANITOBA***

CITY           SKY/WX    TMP DP  RH WIND       PRES   REMARKS
BRANDON        CLOUDY    73  64  73 W5        29.72S
DAUPHIN        CLOUDY    68  66  94 NW7       29.71R
ISLAND LAKE    CLOUDY    64  52  63 NE9       29.89F
PILOT MOUND    NOT AVBL
THE PAS        CLOUDY    63  54  72 E9G25     29.81R
THOMPSON       CLOUDY    68  46  45 E6        29.94F
WINNIPEG       CLOUDY    77  68  73 NE6       29.64F
LYNN LAKE      PTSUNNY   66  45  45 MISG      30.00S
CHURCHILL      MOSUNNY   57  50  77 N13       29.96R
GILLAM         PTSUNNY   70  46  43 NW6       29.95S
$$
                ***SASKATCHEWAN***

CITY           SKY/WX    TMP DP  RH WIND       PRES   REMARKS
ESTEVAN        PTSUNNY   75  45  33 W16G23    29.80S
KINDERSLEY     LGT RAIN  54  52  94 N9        29.83R
LLOYDMINSTER   CLOUDY    57  54  88 N14G23    29.94R
PRINCE ALBERT  CLOUDY    57  54  88 NE13      29.77R
REGINA         PTSUNNY   70  48  46 W15G23    29.76S
YORKTON        MOSUNNY   68  50  52 SW9       29.76R
N. BATTLEFORD  CLOUDY    59  52  77 N20G26    29.82R
LA RONGE       LGT RAIN  55  50  82 N14G21    29.93S
SASKATOON      CLOUDY    61  48  63 NE10      29.73R
SWIFT CURRENT  PTSUNNY   59  52  77 W18       29.78S
$$
NOTE: THESE ARE AUTOMATED STATIONS WITH LIMITED QUALITY CONTROL
      "FAIR" INDICATES FEW OR NO CLOUDS BELOW 12,000 FEET WITH NO
      SIGNIFICANT WEATHER AND/OR OBSTRUCTIONS TO VISIBILITY.
      SKY/WX - SKY CONDITION AND SIGNIFICANT WEATHER.
      TMP - AIR TEMPERATURE.    DP   - DEWPOINT TEMPERATURE.
      RH  - RELATIVE HUMIDITY.  PRES - PRESSURE.
      HX  - HEAT INDEX.         WCI  - WIND CHILL INDEX.
$




USA.gov is the U.S. government's official web portal to all federal, state and local government web resources and services.